1508378401.2,64955,13.75,73810.0,1.09,-33.55,-35.41,0,*7D
1508378402.48,64956,13.75,73816.5,1.09,-33.49,-35.23,0,*77
1508378403.73,64957,13.75,73814.8,1.09,-33.55,-35.41,0,*7F
1508378404.99,64958,13.75,73812.8,1.07,-33.95,-35.83,0,*7C
1508378406.25,64959,13.75,73818.8,1.07,-34.31,-36.07,0,*7B
1508378407.52,64960,13.75,73816.8,1.07,-33.73,-35.59,0,*78
1508378408.76,64961,13.75,73816.8,1.05,-33.73,-35.47,0,*74
1508378410.04,64962,13.75,73820.8,1.07,-33.43,-35.41,0,*70
1508378411.31,64963,13.75,73820.8,1.07,-33.73,-35.59,0,*7B
1508378412.52,64964,13.75,73820.3,1.05,-33.55,-35.29,0,*7D
1508378413.76,64965,13.75,73818.3,1.07,-33.55,-35.29,0,*7E
1508378414.99,64966,13.75,73816.8,1.07,-33.55,-35.47,0,*75
1508378416.25,64967,13.75,73818.8,1.07,-33.73,-35.59,0,*7F
1508378417.5,64968,13.75,73816.0,1.07,-33.83,-35.77,0,*73
1508378418.76,64969,13.75,73816.0,1.07,-33.95,-35.83,0,*7E
1508378420.02,64970,13.75,73816.8,1.05,-33.73,-35.65,0,*74
1508378421.26,64971,13.75,73820.5,1.07,-33.95,-35.77,0,*7C
1508378422.52,64972,13.75,73816.5,1.05,-33.73,-35.65,0,*76
1508378423.79,64973,13.75,73818.0,1.07,-33.73,-35.59,0,*7A
1508378425.0,64974,13.75,73816.0,1.05,-33.83,-35.77,0,*7C
1508378426.23,64975,13.75,73818.0,1.05,-33.95,-35.83,0,*71
1508378427.51,64976,13.75,73822.3,1.03,-34.19,-36.13,0,*7D
1508378428.75,64977,13.75,73816.3,1.05,-34.31,-36.07,0,*75
1508378429.98,64978,13.75,73822.5,1.05,-33.77,-35.59,0,*77
1508378431.24,64979,13.75,73820.8,1.03,-33.89,-35.89,0,*7C
1508378432.47,64980,13.75,73820.5,1.05,-33.83,-35.65,0,*74
1508378433.7,64981,13.75,73822.8,1.05,-33.43,-35.29,0,*71
1508378434.95,64982,13.75,73820.0,1.05,-33.43,-35.23,0,*78
1508378436.18,64983,13.75,73820.0,1.05,-33.61,-35.47,0,*7B
1508378437.41,64984,13.75,73820.0,1.05,-33.55,-35.41,0,*7D
1508378438.64,64985,13.75,73818.3,1.05,-33.43,-35.29,0,*75
1508378439.87,64986,13.75,73816.5,1.05,-33.37,-35.23,0,*7F
1508378441.13,64987,13.75,73818.0,1.05,-33.43,-35.41,0,*79
1508378442.37,64988,13.75,73814.5,1.07,-33.55,-35.47,0,*75
1508378443.57,64989,13.75,73814.8,1.05,-33.21,-35.13,0,*74
1508378444.83,64990,13.75,73812.5,1.07,-33.21,-35.07,0,*7B
1508378446.06,64991,13.75,73810.3,1.05,-33.43,-35.47,0,*78
1508378447.32,64992,13.75,73814.8,1.07,-33.61,-35.47,0,*79
1508378448.57,64993,13.75,73812.0,1.05,-33.61,-35.41,0,*7C
1508378449.8,64994,13.75,73810.8,1.05,-33.61,-35.59,0,*72
1508378451.04,64995,13.75,73814.3,1.05,-33.77,-35.77,0,*78
1508378452.25,64996,13.75,73814.8,1.05,-33.83,-35.77,0,*70
1508378453.5,64997,13.75,73814.0,1.07,-34.13,-36.01,0,*7F
1508378454.71,64998,13.75,73812.3,1.05,-34.13,-36.01,0,*72
1508378455.94,64999,13.75,73818.0,1.05,-34.19,-36.07,0,*7F
1508378457.18,65000,13.75,73816.8,1.05,-34.01,-36.01,0,*78
1508378458.45,65001,13.75,73820.0,1.05,-34.01,-35.95,0,*77
1508378459.71,65002,13.75,73816.5,1.05,-33.77,-35.65,0,*7D
1508378460.94,65003,13.75,73822.0,1.05,-33.95,-35.83,0,*78
1508378462.2,65004,13.75,73818.0,1.03,-33.83,-35.83,0,*7E
1508378463.47,65005,13.75,73822.8,1.03,-34.01,-35.89,0,*78
1508378464.73,65006,13.75,73818.3,1.03,-34.01,-35.89,0,*7B
1508378465.97,65007,13.75,73816.8,1.01,-34.01,-36.01,0,*7B
1508378467.21,65008,13.75,73822.0,1.01,-33.89,-35.89,0,*70
1508378468.47,65009,13.75,73824.0,1.03,-33.67,-35.53,0,*74
1508378469.73,65010,13.75,73822.8,1.03,-33.49,-35.47,0,*75
1508378470.99,65011,13.75,73816.3,1.03,-33.49,-35.47,0,*74
1508378472.26,65012,13.75,73816.5,1.03,-33.43,-35.35,0,*78
1508378473.54,65013,13.75,73814.3,1.03,-33.49,-35.35,0,*73
1508378474.8,65014,13.75,73814.0,1.05,-33.43,-35.41,0,*7B
1508378476.03,65015,13.75,73814.3,1.05,-33.43,-35.29,0,*74
1508378477.26,65016,13.75,73816.3,1.05,-33.61,-35.47,0,*7F
1508378478.47,65017,13.75,73814.3,1.05,-33.55,-35.59,0,*76
1508378479.68,65018,13.75,73816.3,1.05,-33.95,-35.77,0,*79
1508378480.89,65019,13.75,73814.8,1.05,-33.95,-35.77,0,*78
1508378482.15,65020,13.75,73812.8,1.05,-34.01,-35.83,0,*73
1508378483.43,65021,13.75,73814.0,1.03,-33.89,-35.83,0,*73
1508378484.66,65022,13.75,73814.0,1.03,-34.25,-36.07,0,*7E
1508378485.92,65023,13.75,73812.8,1.03,-34.19,-36.01,0,*76
1508378487.19,65024,13.75,73808.5,1.03,-34.01,-35.89,0,*7B
1508378488.42,65025,13.75,73814.3,1.03,-33.83,-35.71,0,*70
1508378489.64,65026,13.75,73806.3,1.01,-33.43,-35.17,0,*7D
1508378490.9,65027,13.75,73804.0,1.03,-33.43,-35.47,0,*7B
1508378492.15,65028,13.75,73808.5,1.03,-33.67,-35.65,0,*72
1508378493.44,65029,13.75,73810.3,1.03,-34.01,-35.83,0,*7C
1508378494.67,65030,13.75,73812.0,1.03,-33.67,-35.47,0,*7B
1508378495.91,65031,13.75,73808.8,1.03,-33.67,-35.47,0,*7A
1508378497.16,65032,13.75,73814.3,1.03,-33.77,-35.71,0,*7D
1508378498.42,65033,13.75,73810.5,1.03,-33.83,-35.83,0,*7A
1508378499.65,65034,13.75,73808.0,1.05,-33.61,-35.47,0,*7F
1508378500.89,65035,13.75,73810.0,1.05,-33.83,-35.83,0,*7A
1508378502.12,65036,13.75,73812.5,1.05,-33.95,-35.83,0,*7E
1508378503.4,65037,13.75,73808.0,1.03,-33.77,-35.65,0,*7D
1508378504.61,65038,13.75,73810.0,1.05,-33.37,-35.29,0,*78
1508378505.82,65039,13.75,73818.8,1.05,-33.55,-35.29,0,*7D
1508378507.07,65040,13.75,73814.5,1.05,-33.61,-35.65,0,*7C
1508378508.31,65041,13.75,73816.0,1.05,-33.95,-35.95,0,*79
1508378509.57,65042,13.75,73816.3,1.05,-34.35,-36.25,0,*7F
1508378510.85,65043,13.75,73814.0,1.03,-34.35,-36.25,0,*78
1508378512.14,65044,13.75,73818.8,1.03,-34.35,-36.25,0,*7F
1508378513.4,65045,13.75,73814.5,1.03,-34.35,-36.31,0,*7B
1508378514.66,65046,13.75,73816.0,1.03,-34.53,-36.43,0,*7D
1508378515.86,65047,13.75,73816.8,1.01,-34.41,-36.43,0,*7D
1508378517.12,65048,13.75,73818.0,1.01,-34.53,-36.49,0,*7B
1508378518.36,65049,13.75,73818.3,1.01,-34.59,-36.49,0,*70
1508378519.59,65050,13.75,73818.5,1.01,-34.59,-36.49,0,*78
1508378520.82,65051,13.75,73820.5,1.01,-34.41,-36.25,0,*7A
1508378522.06,65052,13.75,73820.5,1.01,-34.53,-36.43,0,*7A
1508378523.32,65053,13.75,73820.3,0.99,-34.47,-36.37,0,*4D
1508378524.55,65054,13.75,73820.3,1.01,-34.41,-36.25,0,*7F
1508378525.78,65055,13.75,73820.3,0.99,-34.25,-36.19,0,*43
1508378527.03,65056,13.75,73820.5,0.99,-34.25,-36.13,0,*4A
1508378528.26,65057,13.75,73820.3,0.97,-34.31,-36.19,0,*4A
1508378529.49,65058,13.75,73818.0,0.99,-33.67,-35.59,0,*48
1508378530.73,65059,13.75,73816.3,0.99,-33.83,-35.77,0,*4F
1508378531.97,65060,13.75,73816.0,0.97,-34.07,-35.95,0,*4C
1508378533.21,65061,13.75,73822.3,0.97,-33.89,-35.89,0,*41
1508378534.44,65062,13.75,73816.0,0.99,-33.83,-35.71,0,*41
1508378535.71,65063,13.75,73816.3,0.99,-34.07,-35.95,0,*41
1508378536.93,65064,13.75,73812.0,1.01,-33.89,-35.71,0,*7D
1508378538.16,65065,13.75,73822.5,0.97,-33.83,-35.53,0,*48
1508378539.41,65066,13.75,73820.3,0.99,-34.07,-35.77,0,*48
1508378540.65,65067,13.75,73822.3,1.01,-34.19,-36.01,0,*74
1508378541.91,65068,13.75,73818.5,0.99,-33.73,-35.59,0,*4E
1508378543.16,65069,13.75,73822.3,0.99,-34.25,-36.13,0,*46
1508378544.36,65070,13.75,73816.3,0.97,-34.25,-36.07,0,*45
1508378545.59,65071,13.75,73820.8,0.99,-34.25,-36.07,0,*4A
1508378546.82,65072,13.75,73820.0,0.99,-33.83,-35.59,0,*4A
1508378548.05,65073,13.75,73818.5,0.97,-33.73,-35.59,0,*4A
1508378549.3,65074,13.75,73818.5,0.99,-33.89,-35.71,0,*4C
1508378550.53,65075,13.75,73822.5,0.99,-33.83,-35.59,0,*4D
1508378551.77,65076,13.75,73822.3,0.99,-33.83,-35.59,0,*4E
1508378553.0,65077,13.75,73822.5,1.01,-33.49,-35.47,0,*76
1508378554.29,65078,13.69,73816.5,0.99,-33.73,-35.53,0,*45
1508378555.52,65079,13.75,73822.5,1.01,-33.43,-35.29,0,*7A
1508378556.73,65080,13.75,73818.8,1.01,-33.67,-35.47,0,*72
1508378557.96,65081,13.75,73816.8,1.01,-33.31,-35.17,0,*75
1508378559.19,65082,13.75,73818.5,1.01,-33.31,-35.29,0,*7B
1508378560.42,65083,13.75,73812.0,1.05,-33.37,-35.07,0,*74
1508378561.67,65084,13.75,73808.5,1.03,-32.97,-34.89,0,*79
1508378562.9,65085,13.75,73802.5,1.01,-33.31,-35.17,0,*71
1508378564.13,65086,13.75,73804.3,1.03,-33.15,-35.13,0,*72
1508378565.33,65087,13.75,73804.5,1.05,-33.21,-35.13,0,*72
1508378566.56,65088,13.75,73804.5,1.05,-33.61,-35.47,0,*78
1508378567.8,65089,13.75,73806.8,1.05,-33.73,-35.47,0,*7A
1508378569.01,65090,13.75,73808.0,1.05,-33.55,-35.29,0,*7E
1508378570.27,65091,13.75,73814.5,1.07,-33.77,-35.59,0,*7A
1508378571.5,65092,13.75,73814.8,1.05,-33.55,-35.41,0,*72
1508378572.75,65093,13.75,73812.8,1.05,-33.27,-35.23,0,*72
1508378573.98,65094,13.75,73818.3,1.07,-32.91,-34.71,0,*7D
1508378575.21,65095,13.75,73816.5,1.05,-33.21,-35.07,0,*74
1508378576.47,65096,13.75,73812.5,1.07,-32.91,-34.65,0,*7A
1508378577.73,65097,13.75,73814.8,1.07,-33.37,-35.07,0,*73
1508378578.99,65098,13.75,73818.8,1.07,-33.61,-35.59,0,*74
1508378580.25,65099,13.75,73816.8,1.07,-33.73,-35.59,0,*76
1508378581.52,65100,13.75,73818.3,1.07,-34.19,-36.01,0,*72
1508378582.75,65101,13.75,73820.8,1.05,-33.95,-35.83,0,*7B
1508378584.01,65102,13.75,73816.3,1.05,-33.77,-35.65,0,*7C
1508378585.27,65103,13.75,73818.0,1.05,-34.01,-35.83,0,*73
1508378586.51,65104,13.75,73820.3,1.05,-34.13,-35.95,0,*70
1508378587.75,65105,13.75,73820.0,1.05,-34.31,-36.01,0,*7F
1508378588.98,65106,13.75,73820.0,1.05,-34.35,-36.07,0,*7E
1508378590.22,65107,13.75,73820.5,1.05,-34.47,-36.25,0,*7A
1508378591.45,65108,13.75,73818.5,1.05,-34.35,-36.19,0,*7F
1508378592.66,65109,13.75,73818.8,1.05,-34.47,-36.19,0,*7B
1508378593.9,65110,13.75,73816.5,1.03,-34.25,-36.01,0,*78
1508378595.14,65111,13.69,73814.3,1.01,-34.35,-36.01,0,*7A
1508378596.4,65112,13.75,73816.5,1.03,-34.35,-35.89,0,*78
1508378597.61,65113,13.75,73816.3,1.01,-34.07,-35.71,0,*7D
1508378598.85,65114,13.75,73816.0,1.01,-34.07,-35.83,0,*77
1508378600.06,65115,13.75,73814.5,1.01,-33.67,-35.47,0,*7F
1508378601.32,65116,13.75,73816.0,1.03,-34.19,-35.71,0,*75
1508378602.6,65117,13.75,73816.5,1.03,-34.19,-35.83,0,*79
1508378603.84,65118,13.75,73814.0,1.01,-34.19,-35.89,0,*7E
1508378605.1,65119,13.75,73818.5,1.01,-34.35,-36.13,0,*71
1508378606.31,65120,13.75,73818.5,1.01,-34.59,-36.31,0,*71
1508378607.57,65121,13.75,73818.5,1.01,-34.53,-36.13,0,*7A
1508378608.8,65122,13.75,73818.5,1.01,-34.53,-36.07,0,*7C
1508378610.07,65123,13.75,73818.5,0.99,-34.47,-36.13,0,*4D
1508378611.33,65124,13.69,73814.8,0.99,-34.65,-36.19,0,*40
1508378612.56,65125,13.69,73812.3,0.97,-34.65,-36.31,0,*45
1508378613.79,65126,13.75,73816.0,0.97,-34.65,-36.19,0,*4C
1508378615.0,65127,13.75,73816.0,0.97,-34.77,-36.19,0,*4E
1508378616.23,65128,13.75,73818.0,0.97,-34.65,-36.31,0,*48
1508378617.47,65129,13.75,73818.5,0.93,-34.71,-36.25,0,*4D
1508378618.72,65130,13.69,73814.8,0.91,-34.47,-36.01,0,*44
1508378619.98,65131,13.75,73818.8,0.91,-34.19,-35.77,0,*4C
1508378621.19,65132,13.75,73816.5,0.97,-34.25,-35.89,0,*47
1508378622.48,65133,13.75,73818.8,0.91,-34.35,-35.95,0,*4C
1508378623.77,65134,13.75,73812.8,0.91,-34.01,-35.83,0,*4B
1508378625.03,65135,13.75,73818.5,0.91,-34.19,-35.77,0,*48
1508378626.24,65136,13.69,73812.3,0.93,-33.95,-35.59,0,*46
1508378627.47,65137,13.75,73816.3,0.91,-34.13,-35.77,0,*40
1508378628.71,65138,13.75,73818.3,0.91,-34.13,-35.77,0,*4F
1508378630.0,65139,13.75,73816.3,0.91,-34.31,-35.95,0,*42
1508378631.29,65140,13.75,73814.5,0.91,-34.35,-35.83,0,*4F
1508378632.58,65141,13.75,73818.3,0.91,-34.31,-35.83,0,*4A
1508378633.86,65142,13.75,73816.3,0.91,-34.19,-35.83,0,*43
1508378635.09,65143,13.75,73818.3,0.89,-34.25,-35.83,0,*44
1508378636.32,65144,13.69,73816.3,0.89,-34.25,-35.83,0,*43
1508378637.58,65145,13.75,73816.8,0.87,-34.41,-35.95,0,*49
1508378638.78,65146,13.75,73820.0,0.89,-34.07,-35.71,0,*4C
1508378640.01,65147,13.75,73816.0,0.89,-34.01,-35.71,0,*4B
1508378641.27,65148,13.75,73822.3,0.87,-34.01,-35.71,0,*4A
1508378642.5,65149,13.75,73820.3,0.89,-34.07,-35.83,0,*4E
1508378643.73,65150,13.75,73822.3,0.89,-34.01,-35.71,0,*4D
1508378644.96,65151,13.75,73818.3,0.89,-33.67,-35.35,0,*4B
1508378646.21,65152,13.75,73820.5,0.87,-33.67,-35.23,0,*41
1508378647.49,65153,13.69,73818.0,0.87,-33.73,-35.23,0,*45
1508378648.74,65154,13.75,73818.5,0.87,-33.31,-35.13,0,*47
1508378649.96,65155,13.75,73816.3,0.87,-33.55,-35.17,0,*40
1508378651.21,65156,13.75,73818.8,0.89,-33.27,-34.95,0,*43
1508378652.44,65157,13.75,73812.0,0.89,-33.61,-35.29,0,*46
1508378653.69,65158,13.75,73814.3,0.87,-33.83,-35.53,0,*46
1508378654.92,65159,13.75,73814.0,0.89,-33.61,-35.47,0,*40
1508378656.14,65160,13.75,73812.8,0.89,-33.95,-35.65,0,*41
1508378657.37,65161,13.75,73814.0,0.89,-33.83,-35.53,0,*42
1508378658.57,65162,13.69,73810.3,0.89,-33.67,-35.47,0,*4E
1508378659.8,65163,13.75,73812.8,0.89,-33.77,-35.47,0,*4E
1508378661.04,65164,13.69,73810.8,0.87,-34.07,-35.77,0,*44
1508378662.24,65165,13.75,73812.5,0.89,-33.95,-35.71,0,*41
1508378663.47,65166,13.75,73814.5,0.87,-33.83,-35.77,0,*4D
1508378664.69,65167,13.69,73814.0,0.89,-33.95,-35.65,0,*46
1508378665.93,65168,13.69,73812.8,0.87,-34.07,-35.89,0,*49
1508378667.16,65169,13.75,73816.3,0.89,-34.01,-35.71,0,*47
1508378668.4,65170,13.75,73818.5,0.87,-34.07,-35.89,0,*40
1508378669.64,65171,13.75,73818.0,0.87,-34.25,-35.89,0,*41
1508378670.9,65172,13.75,73816.3,0.87,-34.13,-35.95,0,*4A
1508378672.17,65173,13.75,73816.0,0.87,-34.13,-35.95,0,*4B
1508378673.39,65174,13.75,73816.5,0.87,-34.25,-36.07,0,*41
1508378674.61,65175,13.75,73814.0,0.87,-34.25,-36.07,0,*40
1508378675.87,65176,13.69,73814.3,0.87,-34.31,-36.31,0,*43
1508378677.12,65177,13.75,73814.3,0.85,-34.31,-36.13,0,*40
1508378678.39,65178,13.75,73814.8,0.83,-34.19,-36.01,0,*40
1508378679.64,65179,13.75,73816.3,0.83,-33.89,-35.59,0,*41
1508378680.87,65180,13.75,73818.8,0.85,-33.67,-35.53,0,*4B
1508378682.15,65181,13.75,73818.0,0.83,-33.61,-35.41,0,*49
1508378683.37,65182,13.75,73814.8,0.85,-33.31,-35.17,0,*4A
1508378684.62,65183,13.75,73814.3,0.85,-33.31,-35.35,0,*4B
1508378685.85,65184,13.69,73814.0,0.85,-33.31,-35.17,0,*4C
1508378687.07,65185,13.75,73816.0,0.85,-33.55,-35.35,0,*4F
1508378688.35,65186,13.75,73818.3,0.87,-33.49,-35.23,0,*44
1508378689.63,65187,13.75,73814.8,0.87,-33.49,-35.35,0,*42
1508378690.86,65188,13.75,73812.3,0.85,-33.31,-35.01,0,*47
1508378692.11,65189,13.69,73810.8,0.89,-33.27,-34.95,0,*41
1508378693.34,65190,13.69,73808.3,0.87,-33.21,-35.01,0,*4D
1508378694.59,65191,13.75,73808.5,0.89,-33.27,-35.07,0,*42
1508378695.84,65192,13.75,73808.5,0.89,-33.27,-35.07,0,*41
1508378697.06,65193,13.75,73812.0,0.89,-33.31,-35.17,0,*46
1508378698.28,65194,13.75,73810.5,0.89,-33.31,-35.17,0,*41
1508378699.52,65195,13.75,73812.0,0.89,-33.49,-35.47,0,*4A
1508378700.8,65196,13.75,73814.0,0.87,-33.73,-35.53,0,*4B
1508378702.05,65197,13.75,73808.5,0.87,-33.83,-35.53,0,*45
1508378703.34,65198,13.75,73810.8,0.87,-33.73,-35.53,0,*45
1508378704.59,65199,13.75,73812.0,0.89,-33.77,-35.65,0,*4B
1508378705.82,65200,13.75,73812.5,0.89,-33.83,-35.83,0,*4B
1508378707.04,65201,13.69,73810.8,0.89,-33.95,-35.53,0,*40
1508378708.27,65202,13.75,73810.5,0.89,-33.77,-35.71,0,*4F
1508378709.49,65203,13.75,73810.0,0.87,-33.83,-35.71,0,*4B
1508378710.75,65204,13.75,73814.5,0.89,-33.49,-35.35,0,*44
1508378712.03,65205,13.69,73806.8,0.87,-33.49,-35.35,0,*4B
1508378713.3,65206,13.75,73810.3,0.87,-33.31,-35.23,0,*40
1508378714.52,65207,13.75,73812.0,0.89,-33.31,-35.17,0,*48
1508378715.8,65208,13.75,73810.0,0.87,-33.49,-35.35,0,*46
1508378717.03,65209,13.75,73810.3,0.89,-33.43,-35.29,0,*4E
1508378718.26,65210,13.75,73812.3,0.89,-33.49,-35.47,0,*44
1508378719.52,65211,13.75,73812.8,0.87,-33.73,-35.59,0,*4D
1508378720.75,65212,13.75,73812.0,0.89,-33.73,-35.71,0,*4A
1508378722.0,65213,13.75,73814.8,0.87,-33.89,-35.71,0,*40
1508378723.23,65214,13.75,73812.8,0.87,-33.83,-35.71,0,*4D
1508378724.49,65215,13.75,73814.0,0.87,-34.01,-35.89,0,*46
1508378725.78,65216,13.75,73818.5,0.87,-34.01,-35.95,0,*48
1508378727.07,65217,13.75,73816.5,0.87,-34.01,-35.95,0,*49
1508378728.36,65218,13.75,73816.3,0.87,-34.01,-35.95,0,*46
1508378729.61,65219,13.75,73818.8,0.87,-33.89,-35.77,0,*4C
1508378730.84,65220,13.69,73814.3,0.87,-33.67,-35.59,0,*4A
1508378732.09,65221,13.69,73814.3,0.87,-33.89,-35.71,0,*41
1508378733.35,65222,13.75,73816.3,0.87,-33.73,-35.71,0,*47
1508378734.6,65223,13.75,73818.5,0.87,-33.67,-35.53,0,*43
1508378735.83,65224,13.75,73814.5,0.87,-33.67,-35.59,0,*4E
1508378737.08,65225,13.75,73810.0,0.87,-33.67,-35.41,0,*46
1508378738.36,65226,13.75,73808.5,0.87,-33.49,-35.35,0,*4A
1508378739.62,65227,13.75,73808.0,0.87,-33.49,-35.29,0,*46
1508378740.87,65228,13.69,73806.8,0.89,-33.61,-35.35,0,*40
1508378742.13,65229,13.69,73814.0,0.91,-33.37,-35.41,0,*48
1508378743.38,65230,13.69,73814.0,0.87,-33.73,-35.71,0,*44
1508378744.61,65231,13.69,73814.3,0.87,-33.83,-35.59,0,*40
1508378745.88,65232,13.69,73812.5,0.87,-34.07,-35.95,0,*48
1508378747.15,65233,13.69,73812.8,0.87,-34.31,-36.13,0,*41
1508378748.4,65234,13.69,73812.0,0.87,-34.41,-36.37,0,*47
1508378749.63,65235,13.69,73814.0,0.87,-34.41,-36.31,0,*40
1508378750.87,65236,13.69,73812.0,0.85,-34.47,-36.25,0,*42
1508378752.1,65237,13.69,73812.0,0.85,-34.13,-36.25,0,*42
1508378753.3,65238,13.75,73814.8,0.85,-34.25,-36.07,0,*48
1508378754.54,65239,13.75,73820.3,0.85,-34.07,-35.95,0,*41
1508378755.83,65240,13.75,73822.3,0.83,-34.31,-36.13,0,*41
1508378757.08,65241,13.69,73818.8,0.83,-33.77,-35.59,0,*48
1508378758.31,65242,13.69,73812.8,0.85,-33.55,-35.41,0,*44
1508378759.54,65243,13.75,73814.3,0.85,-33.67,-35.41,0,*44
1508378760.76,65244,13.75,73818.5,0.85,-33.49,-35.17,0,*4C
1508378761.99,65245,13.69,73814.5,0.85,-33.37,-35.23,0,*43
1508378763.22,65246,13.69,73814.8,0.85,-33.55,-35.53,0,*43
1508378764.45,65247,13.69,73814.8,0.85,-33.67,-35.41,0,*40
1508378765.7,65248,13.69,73816.3,0.89,-33.31,-35.35,0,*43
1508378766.97,65249,13.69,73814.0,0.87,-33.31,-35.23,0,*4B
1508378768.23,65250,13.75,73818.8,0.87,-33.37,-35.35,0,*42
1508378769.48,65251,13.69,73812.0,0.87,-33.67,-35.53,0,*46
1508378770.76,65252,13.69,73812.5,0.87,-33.49,-35.23,0,*4E
1508378772.01,65253,13.75,73816.3,0.85,-33.49,-35.35,0,*4A
1508378773.24,65254,13.75,73816.5,0.87,-33.21,-35.01,0,*46
1508378774.49,65255,13.75,73818.5,0.89,-33.31,-35.35,0,*4F
1508378775.77,65256,13.69,73814.5,0.87,-33.49,-35.35,0,*4D
1508378777.0,65257,13.75,73816.3,0.89,-33.31,-35.13,0,*49
1508378778.25,65258,13.75,73816.3,0.91,-33.55,-35.41,0,*4A
1508378779.5,65259,13.75,73818.5,0.89,-33.77,-35.53,0,*41
1508378780.75,65260,13.75,73820.0,0.89,-33.61,-35.35,0,*4C
1508378782.0,65261,13.75,73820.0,0.89,-33.43,-35.35,0,*4D
1508378783.23,65262,13.75,73818.5,0.89,-33.31,-35.29,0,*46
1508378784.45,65263,13.75,73816.3,0.89,-33.15,-35.07,0,*4D
1508378785.68,65264,13.69,73816.0,0.89,-33.31,-35.29,0,*40
1508378786.9,65265,13.69,73816.0,0.89,-33.43,-35.17,0,*49
1508378788.12,65266,13.75,73816.3,0.89,-33.27,-35.17,0,*48
1508378789.35,65267,13.69,73814.3,0.89,-33.27,-35.17,0,*49
1508378790.57,65268,13.69,73814.5,0.89,-33.27,-35.13,0,*42
1508378791.8,65269,13.75,73816.8,0.89,-33.31,-35.17,0,*40
1508378793.05,65270,13.69,73812.3,0.91,-33.27,-35.29,0,*4B
1508378794.29,65271,13.69,73812.0,0.91,-33.21,-35.13,0,*45
1508378795.54,65272,13.75,73816.3,0.91,-33.55,-35.41,0,*42
1508378796.79,65273,13.69,73818.0,0.89,-33.61,-35.53,0,*4E
1508378798.06,65274,13.69,73816.8,0.91,-33.43,-35.23,0,*47
1508378799.31,65275,13.75,73820.5,0.91,-33.55,-35.41,0,*45
1508378800.57,65276,13.69,73816.5,0.91,-33.37,-35.23,0,*46
1508378801.84,65277,13.75,73816.8,0.91,-33.27,-35.23,0,*46
1508378803.07,65278,13.69,73816.3,0.93,-33.21,-35.07,0,*4B
1508378804.35,65279,13.69,73816.5,0.91,-33.27,-35.23,0,*48
1508378805.59,65280,13.75,73816.3,0.93,-33.27,-35.23,0,*4C
1508378806.82,65281,13.75,73816.8,0.93,-33.43,-35.13,0,*4C
1508378808.06,65282,13.75,73818.5,0.91,-33.37,-35.13,0,*4E
1508378809.31,65283,13.75,73818.5,0.93,-33.09,-35.07,0,*45
1508378810.55,65284,13.75,73814.5,0.91,-32.91,-34.83,0,*4D
1508378811.8,65285,13.75,73816.8,0.91,-33.03,-34.83,0,*46
1508378813.01,65286,13.75,73818.5,0.93,-33.21,-35.01,0,*4C
1508378814.21,65287,13.69,73814.3,0.93,-33.21,-35.13,0,*4E
1508378815.47,65288,13.75,73818.3,0.91,-33.09,-34.89,0,*4B
1508378816.67,65289,13.75,73816.8,0.93,-33.21,-35.01,0,*43
1508378817.88,65290,13.69,73816.0,0.93,-33.37,-35.13,0,*4F
1508378819.1,65291,13.69,73814.5,0.97,-33.15,-35.07,0,*4F
1508378820.33,65292,13.69,73812.5,0.97,-33.21,-35.07,0,*4B
1508378821.54,65293,13.69,73818.0,0.97,-33.21,-35.01,0,*4C
1508378822.76,65294,13.75,73816.8,0.97,-33.31,-35.17,0,*4D
1508378823.97,65295,13.69,73812.8,0.93,-33.37,-35.29,0,*43
1508378825.2,65296,13.69,73812.8,0.93,-33.43,-35.47,0,*4B
1508378826.43,65297,13.69,73814.0,0.93,-33.61,-35.47,0,*4A
1508378827.68,65298,13.69,73814.5,0.93,-33.77,-35.65,0,*42
1508378828.88,65299,13.69,73812.3,0.93,-33.55,-35.59,0,*4C
1508378830.11,65300,13.69,73814.3,0.97,-33.55,-35.53,0,*43
1508378831.36,65301,13.69,73814.3,0.93,-33.73,-35.65,0,*47
1508378832.62,65302,13.69,73808.0,0.91,-33.61,-35.47,0,*45
1508378833.82,65303,13.69,73808.5,0.93,-33.55,-35.59,0,*4E
1508378835.02,65304,13.69,73808.8,0.93,-33.55,-35.47,0,*46
1508378836.3,65305,13.69,73810.8,0.91,-33.43,-35.41,0,*44
1508378837.53,65306,13.69,73812.3,0.93,-33.37,-35.41,0,*46
1508378838.75,65307,13.69,73812.8,0.93,-33.61,-35.59,0,*4D
1508378839.98,65308,13.69,73812.5,0.93,-33.43,-35.47,0,*4D
1508378841.23,65309,13.75,73820.5,0.93,-33.43,-35.41,0,*4A
1508378842.46,65310,13.69,73818.3,0.93,-33.21,-35.41,0,*46
1508378843.67,65311,13.75,73820.3,0.93,-33.55,-35.47,0,*42
1508378844.9,65312,13.69,73818.3,0.93,-33.61,-35.77,0,*45
1508378846.15,65313,13.69,73820.3,0.93,-33.61,-35.41,0,*41
1508378847.37,65314,13.69,73816.3,0.93,-33.55,-35.41,0,*41
1508378848.6,65315,13.69,73816.3,0.93,-33.61,-35.47,0,*41
1508378849.86,65316,13.75,73816.8,0.91,-33.73,-35.47,0,*43
1508378851.11,65317,13.69,73812.8,0.93,-33.77,-35.65,0,*44
1508378852.35,65318,13.75,73816.3,0.93,-33.89,-35.77,0,*49
1508378853.58,65319,13.69,73812.3,0.93,-33.89,-35.77,0,*48
1508378854.81,65320,13.69,73810.8,0.93,-33.89,-35.77,0,*42
1508378856.06,65321,13.69,73810.3,0.93,-33.77,-35.65,0,*41
1508378857.29,65322,13.69,73810.8,0.93,-33.77,-35.77,0,*41
1508378858.53,65323,13.75,73808.0,0.93,-34.13,-36.13,0,*44
1508378859.78,65324,13.69,73802.0,0.97,-33.89,-35.95,0,*4E
1508378861.04,65325,13.69,73802.0,0.91,-34.13,-36.13,0,*40
1508378862.27,65326,13.69,73802.8,0.93,-34.19,-36.19,0,*41
1508378863.55,65327,13.75,73802.0,0.91,-34.31,-36.25,0,*47
1508378864.83,65328,13.69,73800.0,0.91,-34.35,-36.37,0,*4F
1508378866.09,65329,13.69,73800.5,0.91,-34.47,-36.37,0,*4B
1508378867.35,65330,13.75,73806.3,0.91,-34.31,-36.01,0,*47
1508378868.62,65331,13.69,73798.8,0.91,-34.13,-35.95,0,*48
1508378869.9,65332,13.69,73796.5,0.91,-33.89,-35.83,0,*48
1508378871.16,65333,13.69,73796.5,0.91,-33.61,-35.77,0,*44
1508378872.39,65334,13.69,73798.3,0.89,-33.67,-35.65,0,*4F
1508378873.59,65335,13.69,73802.0,0.89,-33.95,-35.89,0,*41
1508378874.82,65336,13.69,73802.5,0.89,-34.19,-36.19,0,*4B
1508378876.07,65337,13.69,73806.0,0.87,-34.41,-36.25,0,*46
1508378877.3,65338,13.69,73806.5,0.89,-34.19,-36.07,0,*4A
1508378878.52,65339,13.69,73808.8,0.89,-34.31,-36.19,0,*4E
1508378879.72,65340,13.69,73804.8,0.89,-34.41,-36.31,0,*4D
1508378880.92,65341,13.69,73804.3,0.89,-34.25,-36.19,0,*44
1508378882.15,65342,13.69,73806.0,0.87,-34.41,-36.31,0,*41
1508378883.41,65343,13.69,73810.0,0.87,-34.59,-36.49,0,*46
1508378884.66,65344,13.69,73806.5,0.87,-34.25,-36.25,0,*40
1508378885.89,65345,13.69,73808.8,0.87,-34.41,-36.31,0,*46
1508378887.12,65346,13.69,73808.0,0.89,-34.35,-36.31,0,*48
1508378888.37,65347,13.69,73808.0,0.87,-34.25,-36.13,0,*46
1508378889.62,65348,13.69,73810.3,0.87,-34.07,-36.13,0,*49
1508378890.88,65349,13.75,73810.8,0.87,-34.41,-36.25,0,*4F
1508378892.13,65350,13.69,73806.8,0.87,-34.25,-36.13,0,*40
1508378893.39,65351,13.69,73804.0,0.87,-34.13,-35.95,0,*49
1508378894.68,65352,13.69,73808.0,0.87,-34.01,-35.95,0,*49
1508378895.94,65353,13.69,73808.5,0.87,-34.13,-35.95,0,*4B
1508378897.17,65354,13.69,73808.5,0.87,-34.13,-36.07,0,*44
1508378898.4,65355,13.69,73810.8,0.85,-34.25,-36.25,0,*42
1508378899.6,65356,13.69,73812.0,0.85,-34.25,-36.07,0,*41
1508378900.86,65357,13.69,73814.0,0.87,-34.13,-36.25,0,*47
1508378902.11,65358,13.75,73814.8,0.87,-34.41,-36.25,0,*4F
1508378903.35,65359,13.69,73812.5,0.85,-34.59,-36.49,0,*4F
1508378904.58,65360,13.69,73812.0,0.85,-34.59,-36.37,0,*4C
1508378905.81,65361,13.75,73814.3,0.85,-34.47,-36.37,0,*42